XNO408 EIDW-EGCC

Flight info

Callsign XNO408
Flight time 0h 37m
Altitude 19000
Route BOFUM1E BOFUM Q37 MALUD
Aircraft A20N/M-SDE2E3FGHIRWXY/LB1

Departure

Time 2026-05-04 15:39
Airport Dublin Airport (EIDW)

Arrival

Time 2026-05-04 16:16
Airport Manchester Airport (EGCC)
Time Latitude Longitude Altitude Speed Heading
2026-05-04 15:20 53.42586 -6.26061 225 ft 0 kts
2026-05-04 15:30 53.42560 -6.26073 224 ft 3 kts 26°
2026-05-04 15:30 53.42518 -6.26145 226 ft 3 kts 69°
2026-05-04 15:31 53.42512 -6.26187 227 ft 0 kts 84°
2026-05-04 15:32 53.42504 -6.25996 225 ft 20 kts 94°
2026-05-04 15:33 53.42375 -6.25971 225 ft 20 kts 226°
2026-05-04 15:34 53.42282 -6.26527 225 ft 20 kts 275°
2026-05-04 15:34 53.42294 -6.26735 225 ft 19 kts 275°
2026-05-04 15:34 53.42322 -6.27285 227 ft 24 kts 275°
2026-05-04 15:35 53.42357 -6.27896 225 ft 26 kts 275°
2026-05-04 15:35 53.42359 -6.27941 225 ft 2 kts 275°
2026-05-04 15:35 53.42361 -6.27986 225 ft 6 kts 275°
2026-05-04 15:36 53.42373 -6.28221 225 ft 14 kts 275°
2026-05-04 15:36 53.42384 -6.28403 225 ft 18 kts 276°
2026-05-04 15:36 53.42396 -6.28626 225 ft 21 kts 275°
2026-05-04 15:37 53.42409 -6.28882 227 ft 19 kts 273°
2026-05-04 15:37 53.42400 -6.29019 225 ft 11 kts 245°
2026-05-04 15:37 53.42327 -6.29070 226 ft 13 kts 177°
2026-05-04 15:37 53.42254 -6.29039 233 ft 9 kts 133°
2026-05-04 15:38 53.42240 -6.28950 235 ft 9 kts 97°
2026-05-04 15:38 53.42225 -6.28692 236 ft 52 kts 95°
2026-05-04 15:38 53.42171 -6.27695 233 ft 116 kts 95°
2026-05-04 15:38 53.42083 -6.26141 470 ft 139 kts 95°
2026-05-04 15:39 53.42007 -6.24540 1089 ft 138 kts 94°
2026-05-04 15:39 53.41916 -6.22900 1681 ft 143 kts 92°
2026-05-04 15:39 53.41720 -6.19239 2471 ft 177 kts 92°
2026-05-04 15:40 53.41642 -6.17824 2761 ft 191 kts 93°
2026-05-04 15:40 53.41503 -6.15448 3194 ft 217 kts 94°
2026-05-04 15:40 53.41345 -6.12814 3849 ft 238 kts 94°
2026-05-04 15:40 53.41177 -6.09919 4531 ft 260 kts 94°
2026-05-04 15:41 53.41003 -6.06839 5454 ft 268 kts 95°
2026-05-04 15:41 53.40855 -6.03660 6404 ft 278 kts 88°
2026-05-04 15:41 53.41297 -6.00502 7360 ft 281 kts 67°
2026-05-04 15:41 53.42058 -5.97486 8502 ft 281 kts 66°
2026-05-04 15:42 53.42844 -5.94461 9544 ft 285 kts 66°
2026-05-04 15:42 53.43643 -5.91382 10484 ft 293 kts 66°
2026-05-04 15:42 53.44479 -5.88132 10941 ft 316 kts 66°
2026-05-04 15:42 53.45374 -5.84617 11356 ft 337 kts 66°
2026-05-04 15:43 53.46300 -5.80955 12150 ft 344 kts 67°
2026-05-04 15:43 53.47212 -5.77223 13062 ft 348 kts 68°
2026-05-04 15:43 53.48121 -5.73431 13940 ft 353 kts 68°
2026-05-04 15:43 53.49038 -5.69591 14764 ft 356 kts 68°
2026-05-04 15:44 53.49961 -5.65728 15620 ft 357 kts 67°
2026-05-04 15:44 53.50894 -5.61831 16426 ft 361 kts 68°
2026-05-04 15:44 53.51835 -5.57901 17226 ft 364 kts 67°
2026-05-04 15:44 53.52766 -5.53916 18055 ft 367 kts 70°
2026-05-04 15:45 53.53394 -5.49785 18641 ft 375 kts 79°
2026-05-04 15:45 53.53632 -5.45418 18754 ft 374 kts 89°
2026-05-04 15:45 53.53523 -5.41040 18854 ft 375 kts 92°
2026-05-04 15:45 53.53401 -5.36648 18952 ft 376 kts 91°
2026-05-04 15:46 53.53288 -5.32266 19048 ft 375 kts 91°
2026-05-04 15:46 53.53178 -5.27872 19079 ft 377 kts 91°
2026-05-04 15:46 53.53066 -5.23473 19075 ft 376 kts 91°
2026-05-04 15:46 53.52953 -5.19080 19082 ft 376 kts 91°
2026-05-04 15:47 53.52838 -5.14694 19072 ft 376 kts 91°
2026-05-04 15:47 53.52709 -5.10291 19070 ft 377 kts 92°
2026-05-04 15:47 53.52569 -5.05912 19062 ft 374 kts 92°
2026-05-04 15:47 53.52428 -5.01535 19059 ft 377 kts 92°
2026-05-04 15:48 53.52285 -4.97128 19063 ft 377 kts 92°
2026-05-04 15:48 53.52142 -4.92762 19055 ft 373 kts 92°
2026-05-04 15:48 53.51854 -4.83983 19060 ft 376 kts 92°
2026-05-04 15:49 53.51708 -4.79607 19056 ft 374 kts 92°
2026-05-04 15:49 53.51563 -4.75237 19059 ft 376 kts 92°
2026-05-04 15:49 53.51416 -4.70836 19057 ft 377 kts 92°
2026-05-04 15:49 53.51266 -4.66463 19060 ft 374 kts 92°
2026-05-04 15:50 53.51117 -4.62093 19060 ft 377 kts 92°
2026-05-04 15:50 53.50965 -4.57687 19067 ft 378 kts 92°
2026-05-04 15:50 53.50810 -4.53296 19067 ft 375 kts 92°
2026-05-04 15:50 53.50654 -4.48913 19059 ft 377 kts 92°
2026-05-04 15:51 53.50496 -4.44509 19065 ft 377 kts 92°
2026-05-04 15:51 53.50338 -4.40175 19056 ft 375 kts 92°
2026-05-04 15:51 53.50175 -4.35793 19065 ft 377 kts 93°
2026-05-04 15:51 53.50010 -4.31384 19058 ft 378 kts 92°
2026-05-04 15:52 53.49844 -4.26991 19063 ft 375 kts 93°
2026-05-04 15:52 53.49678 -4.22596 19065 ft 378 kts 93°
2026-05-04 15:52 53.49511 -4.18195 19016 ft 377 kts 93°
2026-05-04 15:52 53.49343 -4.13827 18744 ft 374 kts 93°
2026-05-04 15:53 53.49176 -4.09480 18228 ft 373 kts 93°
2026-05-04 15:53 53.49007 -4.05134 17570 ft 371 kts 94°
2026-05-04 15:53 53.48837 -4.00838 16966 ft 368 kts 94°
2026-05-04 15:53 53.48539 -3.96580 16350 ft 366 kts 101°
2026-05-04 15:54 53.47909 -3.92460 15758 ft 363 kts 108°
2026-05-04 15:54 53.47073 -3.88473 15177 ft 361 kts 109°
2026-05-04 15:54 53.46248 -3.84500 14603 ft 359 kts 109°
2026-05-04 15:54 53.45433 -3.80558 14061 ft 357 kts 109°
2026-05-04 15:55 53.44625 -3.76645 13509 ft 354 kts 109°
2026-05-04 15:55 53.43819 -3.72754 12889 ft 352 kts 109°
2026-05-04 15:55 53.43017 -3.68895 12305 ft 350 kts 109°
2026-05-04 15:55 53.42218 -3.65059 11796 ft 346 kts 109°
2026-05-04 15:56 53.41519 -3.61220 11263 ft 343 kts 103°
2026-05-04 15:56 53.41161 -3.57269 10626 ft 345 kts 94°
2026-05-04 15:56 53.41002 -3.53280 10323 ft 336 kts 94°
2026-05-04 15:56 53.40842 -3.49462 10185 ft 322 kts 94°
2026-05-04 15:57 53.40699 -3.45806 10073 ft 307 kts 89°
2026-05-04 15:57 53.41055 -3.42394 9851 ft 297 kts 73°
2026-05-04 15:57 53.41651 -3.39100 9509 ft 293 kts 72°
2026-05-04 15:57 53.42246 -3.35853 9181 ft 289 kts 72°
2026-05-04 15:58 53.42838 -3.32621 8726 ft 290 kts 72°
2026-05-04 15:58 53.43427 -3.29390 8375 ft 287 kts 72°
2026-05-04 15:58 53.44000 -3.26234 8217 ft 281 kts 72°
2026-05-04 15:58 53.44578 -3.23036 8126 ft 289 kts 72°
2026-05-04 15:59 53.45158 -3.19818 8065 ft 285 kts 72°
2026-05-04 15:59 53.45728 -3.16653 8064 ft 284 kts 72°
2026-05-04 15:59 53.46302 -3.13452 8065 ft 288 kts 72°
2026-05-04 15:59 53.46875 -3.10255 8065 ft 285 kts 72°
2026-05-04 16:00 53.47444 -3.07073 8063 ft 284 kts 72°
2026-05-04 16:00 53.48013 -3.03877 8065 ft 288 kts 72°
2026-05-04 16:00 53.48586 -3.00666 8064 ft 286 kts 72°
2026-05-04 16:00 53.49154 -2.97476 8063 ft 285 kts 72°
2026-05-04 16:01 53.49720 -2.94291 8062 ft 286 kts 72°
2026-05-04 16:01 53.50290 -2.91080 8062 ft 286 kts 72°
2026-05-04 16:01 53.50846 -2.87938 8061 ft 284 kts 72°
2026-05-04 16:01 53.51404 -2.84779 8059 ft 276 kts 72°
2026-05-04 16:02 53.51935 -2.81771 8060 ft 261 kts 72°
2026-05-04 16:02 53.52432 -2.78943 8056 ft 245 kts 72°
2026-05-04 16:02 53.53353 -2.73702 8061 ft 232 kts 72°
2026-05-04 16:03 53.53735 -2.71073 8060 ft 231 kts 79°
2026-05-04 16:03 53.54002 -2.68414 8062 ft 231 kts 80°
2026-05-04 16:03 53.54261 -2.65740 8060 ft 233 kts 80°
2026-05-04 16:03 53.54520 -2.63070 8059 ft 231 kts 80°
2026-05-04 16:04 53.54783 -2.60414 8059 ft 229 kts 80°
2026-05-04 16:04 53.55306 -2.55156 7773 ft 227 kts 80°
2026-05-04 16:04 53.55571 -2.52540 7495 ft 227 kts 80°
2026-05-04 16:05 53.55838 -2.49933 7214 ft 226 kts 80°
2026-05-04 16:05 53.56105 -2.47337 6946 ft 225 kts 80°
2026-05-04 16:05 53.56637 -2.42182 6434 ft 222 kts 80°
2026-05-04 16:06 53.56902 -2.39627 6168 ft 220 kts 80°
2026-05-04 16:06 53.57595 -2.32847 6051 ft 221 kts 80°
2026-05-04 16:07 53.57944 -2.29427 6064 ft 222 kts 80°
2026-05-04 16:07 53.58718 -2.21804 5749 ft 219 kts 80°
2026-05-04 16:08 53.58972 -2.19270 5465 ft 219 kts 80°
2026-05-04 16:08 53.59710 -2.11729 4674 ft 216 kts 80°
2026-05-04 16:09 53.59814 -2.06784 4229 ft 209 kts 115°
2026-05-04 16:09 53.57704 -2.04126 4051 ft 185 kts 160°
2026-05-04 16:10 53.55212 -2.02530 4004 ft 192 kts 161°
2026-05-04 16:11 53.51333 -2.03014 3478 ft 187 kts 190°
2026-05-04 16:11 53.50054 -2.03353 3198 ft 182 kts 190°
2026-05-04 16:12 53.46339 -2.04996 3006 ft 185 kts 217°
2026-05-04 16:12 53.43755 -2.09793 2743 ft 184 kts 232°
2026-05-04 16:13 53.42162 -2.13152 2224 ft 184 kts 232°
2026-05-04 16:13 53.40572 -2.16506 1727 ft 183 kts 232°
2026-05-04 16:14 53.38991 -2.19838 1222 ft 182 kts 232°
2026-05-04 16:14 53.37566 -2.22866 755 ft 145 kts 233°
2026-05-04 16:15 53.35890 -2.26417 234 ft 123 kts 234°
2026-05-04 16:16 53.35016 -2.28236 256 ft 53 kts 231°
2026-05-04 16:16 53.34942 -2.28674 260 ft 0 kts 273°
2026-05-04 16:18 53.34970 -2.28743 260 ft 8 kts 328°
2026-05-04 16:18 53.35033 -2.28708 260 ft 13 kts 43°
2026-05-04 16:19 53.35308 -2.28163 253 ft 27 kts 45°
2026-05-04 16:19 53.35453 -2.27857 250 ft 1 kts 82°
2026-05-04 16:20 53.35544 -2.27611 247 ft 0 kts 50°
2026-05-04 16:22 53.35552 -2.27594 246 ft 0 kts 51°
2026-05-04 16:26 53.35564 -2.27571 246 ft 2 kts 51°
2026-05-04 16:26 53.35723 -2.27239 241 ft 20 kts 51°
2026-05-04 16:27 53.35838 -2.26985 237 ft 3 kts 63°
2026-05-04 16:28 53.35878 -2.26886 237 ft 0 kts 52°
2026-05-04 16:31 53.35879 -2.26883 237 ft 2 kts 50°
2026-05-04 16:32 53.35977 -2.26984 236 ft 11 kts 291°